| time (UTC) | temp C | wind direction | speed KPH | gust KPH | rain 1hr cm | rain 24hr cm | rain mn cm | humidity % | barometer mb |
| 20260506203939 | 17 | 359 | 0.0 | 0.0 | 0.00 | 3.56 | 0.00 | 76 | 1013.4 |
| 20260506203439 | 17 | 359 | 0.0 | 0.0 | 0.00 | 3.56 | 0.00 | 76 | 1013.4 |
| 20260506202939 | 17 | 359 | 0.0 | 0.0 | 0.00 | 3.56 | 0.00 | 76 | 1013.4 |
| 20260506202442 | 17 | 359 | 0.0 | 0.0 | 0.00 | 3.56 | 0.00 | 76 | 1013.3 |
| 20260506201939 | 17 | 359 | 0.0 | 0.0 | 0.00 | 3.56 | 0.00 | 76 | 1013.4 |
| 20260506201442 | 17 | 359 | 0.0 | 0.0 | 0.00 | 3.56 | 0.00 | 76 | 1013.4 |
| 20260506200939 | 17 | 359 | 0.0 | 0.0 | 0.00 | 3.56 | 0.00 | 76 | 1013.3 |
| 20260506200439 | 17 | 359 | 0.0 | 0.0 | 0.00 | 3.56 | 0.00 | 76 | 1013.2 |
| 20260506195942 | 17 | 359 | 0.0 | 0.0 | 0.00 | 3.56 | 0.00 | 76 | 1013.0 |
| 20260506195442 | 17 | 359 | 0.0 | 0.0 | 0.00 | 3.56 | 0.00 | 76 | 1013.0 |
| 20260506194939 | 17 | 359 | 0.0 | 0.0 | 0.00 | 3.56 | 0.00 | 76 | 1012.9 |
| 20260506194439 | 17 | 359 | 0.0 | 0.0 | 0.00 | 3.56 | 0.00 | 76 | 1012.8 |
| 20260506193939 | 17 | 359 | 0.0 | 0.0 | 0.00 | 3.56 | 0.00 | 76 | 1012.8 |
| 20260506193442 | 17 | 359 | 0.0 | 0.0 | 0.00 | 3.56 | 0.00 | 76 | 1012.8 |
| 20260506192939 | 17 | 359 | 0.0 | 0.0 | 0.00 | 3.56 | 0.00 | 77 | 1012.7 |
| 20260506192439 | 17 | 359 | 0.0 | 0.0 | 0.00 | 3.56 | 0.00 | 77 | 1012.7 |
| 20260506191945 | 17 | 359 | 0.0 | 0.0 | 0.00 | 3.56 | 0.00 | 77 | 1012.6 |
| 20260506191439 | 17 | 359 | 0.0 | 0.0 | 0.00 | 3.56 | 0.00 | 77 | 1012.6 |
| 20260506190945 | 17 | 359 | 0.0 | 0.0 | 0.00 | 3.56 | 0.00 | 78 | 1012.6 |
| 20260506190448 | 17 | 359 | 0.0 | 0.0 | 0.00 | 3.56 | 0.00 | 78 | 1012.4 |
| 20260506185939 | 17 | 359 | 0.0 | 0.0 | 0.00 | 3.56 | 0.00 | 78 | 1012.3 |
| 20260506185439 | 17 | 359 | 0.0 | 0.0 | 0.00 | 3.56 | 0.00 | 78 | 1012.3 |
| 20260506184939 | 17 | 359 | 0.0 | 0.0 | 0.00 | 3.56 | 0.00 | 78 | 1012.2 |
| 20260506184439 | 17 | 359 | 0.0 | 0.0 | 0.00 | 3.56 | 0.00 | 78 | 1012.2 |
| 20260506183939 | 17 | 359 | 0.0 | 0.0 | 0.00 | 3.56 | 0.00 | 78 | 1012.1 |
| 20260506183439 | 17 | 359 | 0.0 | 0.0 | 0.00 | 3.56 | 0.00 | 78 | 1012.1 |
| 20260506182939 | 17 | 359 | 0.0 | 0.0 | 0.00 | 3.56 | 0.00 | 78 | 1012.0 |
| 20260506182439 | 17 | 359 | 0.0 | 0.0 | 0.00 | 3.56 | 0.00 | 79 | 1011.9 |
| 20260506181942 | 17 | 359 | 0.0 | 0.0 | 0.00 | 3.56 | 0.00 | 79 | 1011.8 |
| 20260506181439 | 17 | 359 | 0.0 | 0.0 | 0.00 | 3.56 | 0.00 | 80 | 1011.8 |
| 20260506180942 | 17 | 359 | 0.0 | 0.0 | 0.00 | 3.56 | 0.00 | 80 | 1011.6 |
| 20260506180442 | 17 | 359 | 0.0 | 0.0 | 0.00 | 3.56 | 0.00 | 80 | 1011.5 |
| 20260506175942 | 17 | 359 | 0.0 | 0.0 | 0.00 | 3.56 | 0.00 | 80 | 1011.5 |
| 20260506175439 | 17 | 359 | 0.0 | 0.0 | 0.00 | 3.56 | 0.00 | 80 | 1011.5 |
| 20260506174945 | 17 | 359 | 0.0 | 0.0 | 0.00 | 3.56 | 0.00 | 79 | 1011.5 |
| 20260506174439 | 17 | 359 | 0.0 | 0.0 | 0.00 | 3.56 | 0.00 | 79 | 1011.5 |
| 20260506173945 | 17 | 359 | 0.0 | 0.0 | 0.00 | 3.56 | 0.00 | 79 | 1011.5 |
| 20260506173442 | 17 | 359 | 0.0 | 0.0 | 0.00 | 3.56 | 0.00 | 79 | 1011.4 |
| 20260506172942 | 17 | 359 | 0.0 | 0.0 | 0.00 | 3.56 | 0.00 | 78 | 1011.5 |
| 20260506172439 | 17 | 359 | 0.0 | 0.0 | 0.00 | 3.56 | 0.00 | 78 | 1011.4 |
| 20260506171942 | 17 | 359 | 0.0 | 0.0 | 0.00 | 3.56 | 0.00 | 78 | 1011.4 |
| 20260506171439 | 18 | 359 | 0.0 | 0.0 | 0.00 | 3.56 | 0.00 | 78 | 1011.4 |
| 20260506170939 | 18 | 359 | 0.0 | 0.0 | 0.00 | 3.56 | 0.00 | 78 | 1011.3 |
| 20260506170442 | 18 | 359 | 0.0 | 0.0 | 0.00 | 3.56 | 0.00 | 77 | 1011.4 |
| 20260506165942 | 18 | 359 | 0.0 | 0.0 | 0.00 | 3.56 | 0.00 | 76 | 1011.4 |
| 20260506165442 | 18 | 359 | 0.0 | 0.0 | 0.00 | 3.56 | 0.00 | 76 | 1011.3 |
| 20260506164939 | 18 | 359 | 0.0 | 0.0 | 0.00 | 3.56 | 0.00 | 75 | 1011.3 |
| 20260506164442 | 18 | 359 | 0.0 | 0.0 | 0.00 | 3.56 | 0.00 | 75 | 1011.4 |
| 20260506163939 | 18 | 191 | 0.0 | 0.0 | 0.00 | 3.56 | 0.00 | 74 | 1011.4 |
| 20260506163442 | 18 | 226 | 0.0 | 0.0 | 0.00 | 3.56 | 0.00 | 74 | 1011.4 |
| 20260506162939 | 18 | 359 | 0.0 | 0.0 | 0.00 | 3.56 | 0.00 | 74 | 1011.4 |
| 20260506162443 | 18 | 359 | 0.0 | 0.0 | 0.00 | 3.56 | 0.00 | 75 | 1011.4 |
| 20260506161942 | 18 | 211 | 0.0 | 0.0 | 0.00 | 3.56 | 0.00 | 75 | 1011.3 |
| 20260506161439 | 18 | 359 | 0.0 | 0.0 | 0.00 | 3.56 | 0.00 | 75 | 1011.4 |
| 20260506160939 | 18 | 121 | 0.0 | 0.0 | 0.00 | 3.56 | 0.00 | 76 | 1011.3 |
| 20260506160445 | 18 | 359 | 0.0 | 0.0 | 0.00 | 3.56 | 0.00 | 77 | 1011.3 |
| 20260506155939 | 18 | 206 | 0.0 | 0.0 | 0.00 | 3.56 | 0.00 | 78 | 1011.3 |
| 20260506155439 | 18 | 359 | 0.0 | 0.0 | 0.00 | 3.56 | 0.00 | 78 | 1011.3 |
| 20260506154943 | 18 | 359 | 0.0 | 0.0 | 0.00 | 3.56 | 0.00 | 77 | 1011.2 |
| 20260506154445 | 18 | 218 | 0.0 | 0.0 | 0.00 | 3.56 | 0.00 | 76 | 1011.2 |
| 20260506153943 | 18 | 201 | 0.0 | 0.0 | 0.00 | 3.56 | 0.00 | 76 | 1011.3 |
| 20260506153445 | 18 | 359 | 0.0 | 0.0 | 0.00 | 3.56 | 0.00 | 76 | 1011.1 |
| 20260506152939 | 19 | 359 | 0.0 | 0.0 | 0.00 | 3.56 | 0.00 | 76 | 1011.2 |
| 20260506152445 | 19 | 359 | 0.0 | 0.0 | 0.00 | 3.56 | 0.00 | 77 | 1011.2 |
| 20260506151940 | 19 | 359 | 0.0 | 0.0 | 0.00 | 3.56 | 0.00 | 76 | 1011.2 |
| 20260506151440 | 19 | 170 | 0.0 | 0.0 | 0.00 | 3.56 | 0.00 | 75 | 1011.2 |
| 20260506150940 | 19 | 246 | 0.0 | 0.0 | 0.00 | 3.56 | 0.00 | 75 | 1011.2 |
| 20260506150443 | 19 | 180 | 0.0 | 0.0 | 0.00 | 3.56 | 0.00 | 75 | 1011.2 |
| 20260506145940 | 19 | 200 | 0.0 | 0.0 | 0.00 | 3.56 | 0.00 | 76 | 1011.2 |
| 20260506145446 | 19 | 196 | 0.0 | 0.0 | 0.00 | 3.56 | 0.00 | 75 | 1011.2 |
| 20260506144940 | 20 | 359 | 0.0 | 0.0 | 0.00 | 3.56 | 0.00 | 74 | 1011.1 |
| 20260506144440 | 20 | 201 | 0.0 | 0.0 | 0.00 | 3.56 | 0.00 | 74 | 1011.2 |
| 20260506143940 | 20 | 176 | 0.0 | 0.0 | 0.00 | 3.56 | 0.00 | 75 | 1011.1 |
| 20260506143446 | 19 | 359 | 0.0 | 0.0 | 0.00 | 3.56 | 0.00 | 75 | 1011.1 |
| 20260506142940 | 19 | 145 | 0.0 | 0.0 | 0.00 | 3.56 | 0.00 | 75 | 1011.1 |
| 20260506142440 | 19 | 154 | 0.0 | 0.0 | 0.00 | 3.56 | 0.00 | 75 | 1011.1 |
| 20260506141940 | 19 | 186 | 0.0 | 0.0 | 0.00 | 3.56 | 0.00 | 74 | 1011.2 |
| 20260506141443 | 19 | 193 | 0.0 | 0.0 | 0.00 | 3.56 | 0.00 | 75 | 1011.2 |
| 20260506140943 | 19 | 195 | 0.0 | 0.0 | 0.00 | 3.56 | 0.00 | 74 | 1011.2 |
| 20260506140443 | 19 | 218 | 0.0 | 0.0 | 0.00 | 3.56 | 0.00 | 75 | 1011.2 |
| 20260506135946 | 19 | 194 | 0.0 | 0.0 | 0.00 | 3.56 | 0.00 | 75 | 1011.2 |
| 20260506135443 | 19 | 359 | 0.0 | 0.0 | 0.00 | 3.56 | 0.00 | 75 | 1011.3 |
| 20260506134940 | 19 | 196 | 0.0 | 0.0 | 0.00 | 3.56 | 0.00 | 73 | 1011.3 |
| 20260506134440 | 19 | 327 | 0.0 | 0.0 | 0.00 | 3.56 | 0.00 | 74 | 1011.4 |
| 20260506133943 | 19 | 152 | 0.0 | 0.0 | 0.00 | 3.56 | 0.00 | 73 | 1011.4 |
| 20260506133440 | 19 | 359 | 0.0 | 0.0 | 0.00 | 3.56 | 0.00 | 73 | 1011.4 |
| 20260506132946 | 19 | 242 | 0.0 | 0.0 | 0.00 | 3.56 | 0.00 | 73 | 1011.4 |
| 20260506132443 | 19 | 185 | 0.0 | 0.0 | 0.00 | 3.56 | 0.00 | 74 | 1011.5 |
| 20260506131943 | 19 | 206 | 0.0 | 0.0 | 0.00 | 3.56 | 0.00 | 74 | 1011.4 |
| 20260506131443 | 19 | 202 | 0.0 | 0.0 | 0.00 | 3.56 | 0.00 | 74 | 1011.4 |
| 20260506130940 | 19 | 227 | 0.0 | 0.0 | 0.00 | 3.56 | 0.00 | 76 | 1011.3 |
| 20260506130443 | 19 | 158 | 0.0 | 0.0 | 0.00 | 3.56 | 0.00 | 76 | 1011.3 |
| 20260506125940 | 19 | 224 | 0.0 | 0.0 | 0.00 | 3.56 | 0.00 | 77 | 1011.3 |
| 20260506125440 | 19 | 190 | 0.0 | 0.0 | 0.00 | 3.56 | 0.00 | 77 | 1011.3 |
| 20260506124940 | 19 | 359 | 0.0 | 0.0 | 0.00 | 3.56 | 0.00 | 77 | 1011.3 |
| 20260506124440 | 19 | 359 | 0.0 | 0.0 | 0.00 | 3.56 | 0.00 | 78 | 1011.3 |
| 20260506123943 | 19 | 206 | 0.0 | 0.0 | 0.00 | 3.56 | 0.00 | 78 | 1011.3 |
| 20260506123440 | 19 | 162 | 0.0 | 0.0 | 0.00 | 3.56 | 0.00 | 78 | 1011.2 |
| 20260506122943 | 19 | 176 | 0.0 | 0.0 | 0.00 | 3.56 | 0.00 | 79 | 1011.2 |
| 20260506122443 | 19 | 228 | 0.0 | 0.0 | 0.00 | 3.56 | 0.00 | 79 | 1011.1 |
| 20260506121940 | 19 | 202 | 0.0 | 0.0 | 0.00 | 3.56 | 0.00 | 79 | 1011.1 |
| 20260506121443 | 19 | 359 | 0.0 | 0.0 | 0.00 | 3.56 | 0.00 | 81 | 1011.0 |
| 20260506120940 | 19 | 170 | 0.0 | 0.0 | 0.00 | 3.56 | 0.00 | 81 | 1010.9 |
| 20260506120443 | 19 | 152 | 0.0 | 0.0 | 0.00 | 3.56 | 0.00 | 81 | 1010.9 |
| 20260506115940 | 19 | 158 | 0.0 | 0.0 | 0.00 | 3.56 | 0.00 | 81 | 1011.0 |
| 20260506115440 | 19 | 195 | 0.0 | 0.0 | 0.00 | 3.56 | 0.00 | 81 | 1010.9 |
| 20260506114949 | 19 | 179 | 0.0 | 0.0 | 0.00 | 3.56 | 0.00 | 82 | 1011.0 |
| 20260506114443 | 19 | 199 | 0.0 | 0.0 | 0.00 | 3.56 | 0.00 | 81 | 1011.0 |
| 20260506113940 | 19 | 169 | 0.0 | 0.0 | 0.00 | 3.56 | 0.00 | 82 | 1011.0 |
| 20260506113443 | 18 | 186 | 0.0 | 0.0 | 0.00 | 3.56 | 0.00 | 83 | 1011.0 |
| 20260506112946 | 18 | 210 | 0.0 | 0.0 | 0.00 | 3.56 | 0.00 | 84 | 1010.9 |
| 20260506112443 | 18 | 170 | 0.0 | 0.0 | 0.00 | 3.56 | 0.00 | 83 | 1010.9 |
| 20260506111940 | 18 | 207 | 0.0 | 0.0 | 0.00 | 3.56 | 0.00 | 83 | 1011.0 |
| 20260506111443 | 18 | 182 | 0.0 | 0.0 | 0.00 | 3.56 | 0.00 | 82 | 1011.0 |
| 20260506110946 | 18 | 239 | 0.0 | 0.0 | 0.00 | 3.56 | 0.00 | 83 | 1011.0 |
| 20260506110443 | 18 | 122 | 0.0 | 0.0 | 0.00 | 3.56 | 0.00 | 82 | 1011.1 |
| 20260506105943 | 18 | 359 | 0.0 | 0.0 | 0.00 | 3.56 | 0.00 | 82 | 1011.1 |
| 20260506105440 | 18 | 172 | 0.0 | 0.0 | 0.00 | 3.56 | 0.00 | 82 | 1011.0 |
| 20260506104940 | 18 | 178 | 0.0 | 0.0 | 0.00 | 3.56 | 0.00 | 81 | 1011.0 |
| 20260506104440 | 18 | 141 | 0.0 | 0.0 | 0.00 | 3.56 | 0.00 | 81 | 1011.0 |
| 20260506103943 | 18 | 359 | 0.0 | 0.0 | 0.00 | 3.56 | 0.00 | 81 | 1011.0 |
| 20260506103440 | 19 | 167 | 0.0 | 0.0 | 0.00 | 3.56 | 0.00 | 80 | 1011.0 |
| 20260506102940 | 19 | 204 | 0.0 | 0.0 | 0.00 | 3.56 | 0.00 | 80 | 1010.9 |
| 20260506102440 | 19 | 225 | 0.0 | 0.0 | 0.00 | 3.56 | 0.00 | 80 | 1010.9 |
| 20260506101940 | 19 | 223 | 0.0 | 0.0 | 0.00 | 3.56 | 0.00 | 81 | 1010.8 |
| 20260506101443 | 18 | 245 | 0.0 | 0.0 | 0.00 | 3.56 | 0.00 | 81 | 1010.8 |
| 20260506100943 | 18 | 191 | 0.0 | 0.0 | 0.00 | 3.56 | 0.00 | 81 | 1010.9 |
| 20260506100440 | 18 | 214 | 0.0 | 0.0 | 0.00 | 3.56 | 0.00 | 81 | 1010.9 |
| 20260506095940 | 18 | 175 | 0.0 | 0.0 | 0.00 | 3.56 | 0.00 | 81 | 1010.9 |
| 20260506095440 | 18 | 250 | 0.0 | 0.0 | 0.00 | 3.56 | 0.00 | 81 | 1010.9 |
| 20260506094940 | 18 | 220 | 0.0 | 0.0 | 0.00 | 3.56 | 0.00 | 81 | 1010.8 |
| 20260506094440 | 18 | 186 | 0.0 | 0.0 | 0.00 | 3.56 | 0.00 | 81 | 1010.9 |
| 20260506093940 | 18 | 199 | 0.0 | 0.0 | 0.00 | 3.58 | 0.00 | 81 | 1010.9 |
| 20260506093443 | 18 | 235 | 0.0 | 0.0 | 0.00 | 3.58 | 0.00 | 82 | 1010.8 |
| 20260506092946 | 18 | 190 | 0.0 | 0.0 | 0.00 | 3.58 | 0.00 | 81 | 1010.8 |
| 20260506092446 | 18 | 359 | 0.0 | 0.0 | 0.00 | 3.58 | 0.00 | 82 | 1010.6 |
| 20260506091940 | 17 | 182 | 0.0 | 0.0 | 0.00 | 3.58 | 0.00 | 82 | 1010.7 |
| 20260506091443 | 17 | 171 | 0.0 | 0.0 | 0.00 | 3.58 | 0.00 | 83 | 1010.7 |
| 20260506090940 | 17 | 249 | 0.0 | 0.0 | 0.00 | 3.58 | 0.00 | 83 | 1010.6 |
| 20260506090440 | 17 | 203 | 0.0 | 0.0 | 0.00 | 3.58 | 0.00 | 83 | 1010.6 |
| 20260506085940 | 17 | 201 | 0.0 | 0.0 | 0.00 | 3.58 | 0.00 | 83 | 1010.5 |
| 20260506085443 | 17 | 183 | 0.0 | 0.0 | 0.00 | 3.58 | 0.00 | 85 | 1010.5 |
| 20260506084940 | 17 | 220 | 0.0 | 0.0 | 0.00 | 3.58 | 0.00 | 86 | 1010.3 |
| 20260506084440 | 17 | 208 | 0.0 | 0.0 | 0.00 | 3.58 | 0.00 | 87 | 1010.3 |
| 20260506083943 | 17 | 195 | 0.0 | 0.0 | 0.00 | 3.58 | 0.00 | 88 | 1010.2 |
| 20260506083446 | 17 | 233 | 0.0 | 0.0 | 0.00 | 3.58 | 0.00 | 89 | 1010.2 |
| 20260506082946 | 17 | 245 | 0.0 | 0.0 | 0.00 | 3.58 | 0.00 | 90 | 1010.1 |
| 20260506082440 | 17 | 187 | 0.0 | 0.0 | 0.00 | 3.58 | 0.00 | 90 | 1010.1 |
| 20260506081940 | 17 | 185 | 0.0 | 0.0 | 0.00 | 3.58 | 0.00 | 90 | 1010.0 |
| 20260506081440 | 17 | 192 | 0.0 | 0.0 | 0.00 | 3.58 | 0.00 | 91 | 1010.0 |
| 20260506080940 | 17 | 147 | 0.0 | 0.0 | 0.00 | 3.58 | 0.00 | 91 | 1010.1 |
| 20260506080440 | 17 | 198 | 0.0 | 0.0 | 0.00 | 3.58 | 0.00 | 92 | 1010.1 |
| 20260506073440 | 17 | 197 | 0.0 | 0.0 | 0.46 | 3.58 | 0.00 | 92 | 1010.0 |
| 20260506072940 | 17 | 157 | 0.0 | 0.0 | 0.46 | 3.58 | 0.00 | 92 | 1010.0 |
| 20260506072440 | 17 | 189 | 0.0 | 0.0 | 0.46 | 3.58 | 0.00 | 92 | 1009.9 |
| 20260506071943 | 17 | 180 | 0.0 | 0.0 | 0.46 | 3.58 | 0.00 | 92 | 1009.8 |
| 20260506071446 | 17 | 213 | 0.0 | 0.0 | 0.46 | 3.58 | 0.00 | 92 | 1009.7 |
| 20260506070946 | 17 | 222 | 0.0 | 0.0 | 0.46 | 3.58 | 0.00 | 92 | 1009.7 |
| 20260506070446 | 17 | 197 | 0.0 | 0.0 | 0.46 | 3.58 | 0.00 | 92 | 1009.6 |
| 20260506062446 | 16 | 285 | 0.0 | 0.0 | 0.00 | 3.17 | 0.00 | 91 | 1009.2 |
| 20260506061946 | 16 | 309 | 0.0 | 0.0 | 0.00 | 3.20 | 0.00 | 91 | 1009.3 |
| 20260506061440 | 16 | 305 | 0.0 | 0.0 | 0.00 | 3.23 | 0.00 | 91 | 1009.2 |
| 20260506060943 | 16 | 51 | 0.0 | 0.0 | 0.00 | 3.30 | 0.00 | 91 | 1009.2 |
| 20260506060440 | 16 | 36 | 0.0 | 0.0 | 0.00 | 3.38 | 0.00 | 90 | 1009.3 |
| 20260506050946 | 15 | 16 | 0.0 | 0.0 | 0.05 | 4.34 | 0.00 | 90 | 1009.7 |
| 20260506050443 | 15 | 81 | 0.0 | 0.0 | 0.05 | 4.37 | 0.00 | 90 | 1009.6 |
| 20260506044941 | 14 | 14 | 0.0 | 0.0 | 0.05 | 4.52 | 0.00 | 89 | 1009.5 |
| 20260506044441 | 14 | 10 | 0.0 | 0.0 | 0.05 | 4.60 | 0.00 | 89 | 1009.6 |
| 20260506043940 | 14 | 359 | 0.0 | 0.0 | 0.05 | 4.70 | 0.00 | 89 | 1009.6 |
| 20260506043444 | 14 | 9 | 0.0 | 0.0 | 0.05 | 4.83 | 0.00 | 89 | 1009.8 |
| 20260506042947 | 15 | 33 | 0.0 | 0.0 | 0.05 | 4.95 | 0.00 | 88 | 1009.9 |
| 20260506042444 | 15 | 45 | 0.0 | 0.0 | 0.03 | 5.05 | 0.00 | 88 | 1009.9 |
| 20260506041944 | 15 | 348 | 0.0 | 0.0 | 0.03 | 5.18 | 0.00 | 88 | 1009.9 |
| 20260506041441 | 15 | 41 | 0.0 | 0.0 | 0.00 | 5.33 | 0.00 | 87 | 1010.3 |
| 20260506040941 | 15 | 41 | 0.0 | 0.0 | 0.00 | 5.41 | 0.00 | 87 | 1010.7 |
| 20260506040441 | 15 | 41 | 0.0 | 0.0 | 0.00 | 5.54 | 0.00 | 86 | 1010.6 |
| 20260506035944 | 15 | 60 | 0.0 | 0.0 | 0.00 | 5.82 | 0.00 | 86 | 1010.5 |
| 20260506035444 | 15 | 27 | 0.0 | 0.0 | 0.00 | 5.89 | 0.00 | 86 | 1010.4 |
| 20260506034941 | 15 | 18 | 0.0 | 0.0 | 0.00 | 5.92 | 0.00 | 86 | 1010.4 |
| 20260506034447 | 15 | 349 | 0.0 | 0.0 | 0.00 | 5.99 | 0.00 | 86 | 1010.0 |
| 20260506033944 | 15 | 9 | 0.0 | 0.0 | 0.05 | 6.05 | 0.00 | 87 | 1009.9 |
| 20260506033441 | 15 | 25 | 0.0 | 0.0 | 0.08 | 6.07 | 0.00 | 88 | 1009.9 |
| 20260506032950 | 15 | 25 | 0.0 | 0.0 | 0.08 | 6.12 | 0.00 | 88 | 1010.0 |
| 20260506032441 | 14 | 8 | 0.0 | 0.0 | 0.10 | 6.20 | 0.00 | 89 | 1009.9 |
| 20260506031947 | 14 | 16 | 0.0 | 0.0 | 0.10 | 6.27 | 0.00 | 89 | 1009.9 |
| 20260506031441 | 14 | 37 | 0.0 | 0.0 | 0.10 | 6.32 | 0.00 | 90 | 1009.9 |
| 20260506030941 | 14 | 35 | 0.0 | 0.0 | 0.15 | 6.40 | 0.00 | 90 | 1010.1 |
| 20260506030444 | 14 | 15 | 0.0 | 0.0 | 0.28 | 6.48 | 0.00 | 90 | 1010.4 |
| 20260506025947 | 14 | 20 | 0.0 | 0.0 | 0.53 | 6.48 | 0.00 | 90 | 1010.5 |
| 20260506025444 | 14 | 39 | 0.0 | 0.0 | 0.74 | 6.50 | 0.00 | 91 | 1010.6 |
| 20260506024944 | 14 | 18 | 0.0 | 0.0 | 0.86 | 6.55 | 0.00 | 91 | 1010.7 |
| 20260506024447 | 14 | 345 | 0.0 | 0.0 | 0.91 | 6.55 | 0.00 | 91 | 1010.8 |
| 20260506023941 | 14 | 27 | 0.0 | 0.0 | 1.02 | 6.53 | 0.00 | 91 | 1011.0 |
| 20260506023441 | 14 | 74 | 0.0 | 0.0 | 1.27 | 6.55 | 0.00 | 91 | 1011.1 |
| 20260506022941 | 14 | 359 | 0.0 | 0.0 | 1.50 | 6.58 | 0.00 | 91 | 1011.1 |
| 20260506022441 | 14 | 12 | 0.0 | 0.0 | 2.08 | 6.58 | 0.00 | 91 | 1011.3 |
| 20260506021947 | 14 | 27 | 0.0 | 0.0 | 2.21 | 6.60 | 0.00 | 90 | 1011.3 |
| 20260506021441 | 14 | 35 | 0.0 | 0.0 | 2.34 | 6.63 | 0.00 | 90 | 1011.3 |
| 20260506020941 | 14 | 31 | 0.0 | 0.0 | 2.36 | 6.63 | 0.00 | 91 | 1011.4 |
| 20260506020444 | 14 | 359 | 0.0 | 0.0 | 2.29 | 6.53 | 0.00 | 91 | 1011.4 |
| 20260506015938 | 14 | 345 | 0.0 | 0.0 | 2.06 | 6.30 | 0.00 | 91 | 1011.6 |
| 20260506015438 | 14 | 359 | 0.0 | 0.0 | 1.91 | 6.10 | 0.00 | 91 | 1011.9 |
| 20260506014941 | 14 | 359 | 0.0 | 0.0 | 1.78 | 5.99 | 0.00 | 91 | 1012.2 |
| 20260506014438 | 14 | 359 | 0.0 | 0.0 | 1.78 | 5.97 | 0.00 | 90 | 1012.2 |
| 20260506013944 | 15 | 359 | 0.0 | 0.0 | 1.63 | 5.82 | 0.00 | 89 | 1012.2 |
| 20260506013438 | 16 | 337 | 0.0 | 0.0 | 1.47 | 5.56 | 0.00 | 90 | 1012.7 |
| 20260506012938 | 16 | 214 | 0.0 | 0.0 | 1.24 | 5.33 | 0.00 | 90 | 1012.6 |
| 20260506012438 | 16 | 212 | 0.0 | 0.0 | 0.71 | 4.75 | 0.00 | 90 | 1012.3 |
| 20260506011944 | 16 | 274 | 0.0 | 0.0 | 0.69 | 4.65 | 0.00 | 90 | 1012.0 |
| 20260506011438 | 16 | 283 | 0.0 | 0.0 | 0.56 | 4.52 | 0.00 | 91 | 1011.9 |
| 20260506010938 | 16 | 287 | 0.0 | 0.0 | 0.48 | 4.50 | 0.00 | 90 | 1011.9 |
| 20260506010441 | 16 | 359 | 0.0 | 0.0 | 0.46 | 4.45 | 0.00 | 90 | 1011.9 |
| 20260506005941 | 16 | 359 | 0.0 | 0.0 | 0.43 | 4.47 | 0.00 | 90 | 1011.9 |
| 20260506005441 | 16 | 359 | 0.0 | 0.0 | 0.36 | 4.42 | 0.00 | 89 | 1011.9 |
| 20260506004944 | 16 | 359 | 0.0 | 0.0 | 0.36 | 4.42 | 0.00 | 89 | 1012.0 |
| 20260506004441 | 16 | 359 | 0.0 | 0.0 | 0.30 | 4.39 | 0.00 | 89 | 1012.1 |
| 20260506003941 | 16 | 359 | 0.0 | 0.0 | 0.30 | 4.39 | 0.00 | 89 | 1012.2 |
| 20260506003438 | 16 | 359 | 0.0 | 0.0 | 0.18 | 4.27 | 0.00 | 89 | 1011.8 |
| 20260506002938 | 16 | 359 | 0.0 | 0.0 | 0.15 | 4.22 | 0.00 | 89 | 1011.8 |
| 20260506002438 | 17 | 359 | 0.0 | 0.0 | 0.08 | 4.17 | 0.00 | 89 | 1011.7 |
| 20260506001938 | 17 | 359 | 0.0 | 0.0 | 0.00 | 4.06 | 0.00 | 89 | 1011.7 |
| 20260506001441 | 17 | 359 | 0.0 | 0.0 | 0.00 | 4.06 | 0.00 | 88 | 1011.7 |
| 20260506000941 | 17 | 359 | 0.0 | 0.0 | 0.00 | 4.06 | 0.00 | 88 | 1011.8 |
| 20260506000441 | 17 | 359 | 0.0 | 0.0 | 0.00 | 4.06 | 0.00 | 87 | 1011.9 |
| 20260505235938 | 17 | 359 | 0.0 | 0.0 | 0.00 | 4.06 | 0.00 | 87 | 1012.1 |
| 20260505235444 | 17 | 359 | 0.0 | 0.0 | 0.00 | 4.06 | 0.00 | 87 | 1012.0 |
| 20260505234938 | 17 | 359 | 0.0 | 0.0 | 0.00 | 4.06 | 0.00 | 87 | 1012.2 |
| 20260505234441 | 17 | 359 | 0.0 | 0.0 | 0.00 | 4.06 | 0.00 | 87 | 1012.5 |
| 20260505233938 | 17 | 359 | 0.0 | 0.0 | 0.00 | 4.06 | 0.00 | 87 | 1012.7 |
| 20260505233444 | 17 | 359 | 0.0 | 0.0 | 0.00 | 4.06 | 0.00 | 86 | 1012.7 |
| 20260505232938 | 17 | 359 | 0.0 | 0.0 | 0.00 | 4.06 | 0.00 | 85 | 1012.8 |
| 20260505232438 | 17 | 359 | 0.0 | 0.0 | 0.00 | 4.06 | 0.00 | 85 | 1012.8 |
| 20260505231938 | 17 | 359 | 0.0 | 0.0 | 0.00 | 4.06 | 0.00 | 85 | 1012.9 |
| 20260505231444 | 17 | 359 | 0.0 | 0.0 | 0.00 | 4.06 | 0.00 | 85 | 1013.0 |
| 20260505230938 | 17 | 359 | 0.0 | 0.0 | 0.00 | 4.06 | 0.00 | 85 | 1013.1 |
| 20260505230438 | 17 | 220 | 0.0 | 0.0 | 0.00 | 4.06 | 0.00 | 85 | 1013.2 |
| 20260505225941 | 17 | 220 | 0.0 | 0.0 | 0.00 | 4.06 | 0.00 | 85 | 1013.1 |
| 20260505225441 | 17 | 359 | 0.0 | 0.0 | 0.00 | 4.06 | 0.00 | 85 | 1013.1 |
| 20260505224938 | 17 | 359 | 0.0 | 0.0 | 0.00 | 4.06 | 0.00 | 85 | 1013.2 |
| 20260505224438 | 17 | 359 | 0.0 | 0.0 | 0.00 | 4.06 | 0.00 | 85 | 1013.3 |
| 20260505223938 | 17 | 359 | 0.0 | 0.0 | 0.00 | 4.06 | 0.00 | 85 | 1013.4 |
| 20260505223441 | 17 | 359 | 0.0 | 0.0 | 0.00 | 4.06 | 0.00 | 85 | 1013.5 |
| 20260505222941 | 17 | 193 | 0.0 | 0.0 | 0.00 | 4.06 | 0.00 | 85 | 1013.5 |
| 20260505222438 | 17 | 191 | 0.0 | 0.0 | 0.00 | 4.06 | 0.00 | 85 | 1013.6 |
| 20260505221944 | 17 | 233 | 0.0 | 0.0 | 0.00 | 4.06 | 0.00 | 85 | 1013.7 |
| 20260505221438 | 17 | 359 | 0.0 | 0.0 | 0.00 | 4.06 | 0.00 | 85 | 1013.5 |
| 20260505220941 | 17 | 359 | 0.0 | 0.0 | 0.00 | 4.06 | 0.00 | 85 | 1013.4 |
| 20260505220438 | 17 | 359 | 0.0 | 0.0 | 0.00 | 4.06 | 0.00 | 85 | 1013.4 |
| 20260505215941 | 17 | 236 | 0.0 | 0.0 | 0.00 | 4.06 | 0.00 | 85 | 1013.5 |
| 20260505215447 | 17 | 359 | 0.0 | 0.0 | 0.00 | 4.06 | 0.00 | 85 | 1013.6 |
| 20260505214941 | 17 | 359 | 0.0 | 0.0 | 0.00 | 4.06 | 0.00 | 85 | 1013.5 |
| 20260505214441 | 17 | 235 | 0.0 | 0.0 | 0.00 | 4.06 | 0.00 | 85 | 1013.7 |
| 20260505213941 | 17 | 359 | 0.0 | 0.0 | 0.00 | 4.06 | 0.00 | 85 | 1013.7 |
| 20260505213441 | 17 | 359 | 0.0 | 0.0 | 0.00 | 4.06 | 0.00 | 85 | 1013.8 |
| 20260505212938 | 17 | 236 | 0.0 | 0.0 | 0.00 | 4.06 | 0.00 | 85 | 1013.9 |
| 20260505212438 | 17 | 200 | 0.0 | 0.0 | 0.00 | 4.06 | 0.00 | 85 | 1013.7 |
| 20260505211941 | 17 | 359 | 0.0 | 0.0 | 0.00 | 4.06 | 0.00 | 85 | 1013.8 |
| 20260505211438 | 17 | 359 | 0.0 | 0.0 | 0.00 | 4.06 | 0.00 | 85 | 1013.8 |
| 20260505210941 | 17 | 211 | 0.0 | 0.0 | 0.00 | 4.06 | 0.00 | 85 | 1013.8 |
| 20260505210441 | 17 | 359 | 0.0 | 0.0 | 0.00 | 4.06 | 0.00 | 85 | 1014.0 |
| 20260505205938 | 17 | 201 | 0.0 | 0.0 | 0.00 | 4.06 | 0.00 | 85 | 1014.0 |
| 20260505205438 | 17 | 359 | 0.0 | 0.0 | 0.00 | 4.06 | 0.00 | 85 | 1014.0 |
| 20260505204941 | 17 | 220 | 0.0 | 0.0 | 0.00 | 4.06 | 0.00 | 85 | 1014.0 |
| 20260505204438 | 17 | 197 | 0.0 | 0.0 | 0.00 | 4.06 | 0.00 | 85 | 1014.1 |